Houston, TX

9:58 AM CST on December 09, 2016 (GMT -0600)
Houston / Dunn Helistop

Weather History for KMCJ - November, 2013

Change the Weather History Date:

Friday, November 8, 2013

  Actual Average (KHOU) Record (KHOU)
Temperature  
Mean Temperature 58 °F -  
Max Temperature 66 °F 71 °F 89 °F (1989)
Min Temperature 50 °F 53 °F 34 °F (1991)
Degree Days  
Heating Degree Days 7    
Growing Degree Days 8 (Base 50)    
Moisture  
Dew Point 37 °F    
Average Humidity 47    
Maximum Humidity 71    
Minimum Humidity 28    
Precipitation  
Precipitation 0.00 in - - ()
Sea Level Pressure  
Sea Level Pressure 30.25 in    
Wind  
Wind Speed 10 mph (ENE)    
Max Wind Speed 17 mph    
Max Gust Speed 23 mph    
Visibility 10 miles    
Events      
Averages and records for this station are not official NWS values.
T = Trace of Precipitation, MM = Missing Value Source: NWS Daily Summary

Daily Weather History Graph

Daily Weather History Graph

Search for Another Location

Airport or City:

Trip Planner

Search our weather history database for the weather conditions in past years. The results will help you decide how hot, cold, wet, or windy it might be!

Date:

Astronomy

Nov. 08, 2013 Rise Set
Actual Time 6:40 AM CST 5:29 PM CST
Civil Twilight 6:15 AM CST 5:54 PM CST
Nautical Twilight 5:47 AM CST 6:23 PM CST
Astronomical Twilight 5:19 AM CST 6:51 PM CST
Moon 11:37 AM CST (11/8) 10:50 PM CST (11/8)
Length of Visible Light 11h 38m
Length of Day
10h 48m
Waxing Crescent, 33% of the Moon is Illuminated
Nov 8
Waxing Crescent
Nov 9
First Quarter
Nov 17
Full
Nov 25
Last Quarter
Dec 2
New

Hourly Weather History & Observations

Time (CST) Temp. Dew Point Humidity Pressure Visibility Wind Dir Wind Speed Gust Speed Precip Events Conditions
12:15 AM 55.4 °F 37.4 °F 51% 30.32 in 10.0 mi North 6.9 mph - N/A   Clear
12:35 AM 55.4 °F 37.4 °F 51% 30.32 in 10.0 mi North 10.4 mph - N/A   Clear
12:55 AM 55.4 °F 37.4 °F 51% 30.31 in 10.0 mi NNE 9.2 mph 21.9 mph N/A   Clear
1:15 AM 55.4 °F 37.4 °F 51% 30.30 in 10.0 mi NE 17.3 mph - N/A   Clear
1:35 AM 55.4 °F 39.2 °F 54% 30.31 in 10.0 mi North 5.8 mph - N/A   Clear
1:55 AM 53.6 °F 39.2 °F 58% 30.31 in 8.0 mi NNE 5.8 mph - N/A   Clear
2:15 AM 53.6 °F 39.2 °F 58% 30.31 in 9.0 mi NNE 6.9 mph - N/A   Clear
2:35 AM 53.6 °F 39.2 °F 58% 30.31 in 8.0 mi North 10.4 mph - N/A   Clear
2:55 AM 53.6 °F 39.2 °F 58% 30.31 in 8.0 mi North 11.5 mph - N/A   Clear
3:15 AM 53.6 °F 39.2 °F 58% 30.30 in 9.0 mi North 10.4 mph - N/A   Clear
3:35 AM 53.6 °F 39.2 °F 58% 30.29 in 10.0 mi NNE 9.2 mph - N/A   Clear
3:55 AM 53.6 °F 39.2 °F 58% 30.29 in 10.0 mi North 8.1 mph - N/A   Clear
4:15 AM 53.6 °F 39.2 °F 58% 30.29 in 10.0 mi NNE 12.7 mph 19.6 mph N/A   Clear
4:35 AM 53.6 °F 39.2 °F 58% 30.29 in 10.0 mi NE 12.7 mph 18.4 mph N/A   Clear
4:55 AM 53.6 °F 41.0 °F 62% 30.29 in 10.0 mi NNE 12.7 mph 18.4 mph N/A   Clear
5:15 AM 53.6 °F 41.0 °F 62% 30.29 in 10.0 mi NE 10.4 mph - N/A   Clear
5:35 AM 51.8 °F 41.0 °F 67% 30.28 in 10.0 mi NE 12.7 mph - N/A   Clear
5:55 AM 50.0 °F 41.0 °F 71% 30.28 in 10.0 mi NE 11.5 mph - N/A   Clear
6:15 AM 50.0 °F 41.0 °F 71% 30.28 in 10.0 mi NE 12.7 mph - N/A   Clear
6:35 AM 50.0 °F 41.0 °F 71% 30.29 in 10.0 mi NNE 11.5 mph 16.1 mph N/A   Clear
6:55 AM 50.0 °F 41.0 °F 71% 30.31 in 10.0 mi NNE 9.2 mph - N/A   Clear
7:15 AM 51.8 °F 41.0 °F 67% 30.32 in 10.0 mi NNE 12.7 mph - N/A   Clear
7:35 AM 53.6 °F 41.0 °F 62% 30.32 in 10.0 mi NE 15.0 mph - N/A   Clear
7:55 AM 53.6 °F 41.0 °F 62% 30.33 in 10.0 mi NE 10.4 mph 17.3 mph N/A   Clear
8:15 AM 53.6 °F 41.0 °F 62% 30.33 in 10.0 mi NE 10.4 mph - N/A   Clear
8:35 AM 55.4 °F 39.2 °F 54% 30.33 in 10.0 mi NE 10.4 mph - N/A   Clear
8:55 AM 55.4 °F 39.2 °F 54% 30.34 in 10.0 mi NE 9.2 mph - N/A   Clear
9:15 AM 55.4 °F 37.4 °F 51% 30.34 in 10.0 mi NE 12.7 mph - N/A   Clear
9:35 AM 57.2 °F 37.4 °F 48% 30.33 in 10.0 mi NE 11.5 mph - N/A   Clear
9:55 AM 59.0 °F 37.4 °F 45% 30.33 in 10.0 mi NE 10.4 mph - N/A   Clear
10:15 AM 59.0 °F 35.6 °F 42% 30.32 in 10.0 mi ENE 17.3 mph 21.9 mph N/A   Clear
10:35 AM 60.8 °F 35.6 °F 39% 30.31 in 10.0 mi ENE 15.0 mph 20.7 mph N/A   Clear
10:55 AM 62.6 °F 33.8 °F 34% 30.30 in 10.0 mi ENE 12.7 mph 17.3 mph N/A   Clear
11:15 AM 62.6 °F 32.0 °F 32% 30.30 in 10.0 mi NE 12.7 mph - N/A   Clear
11:35 AM 62.6 °F 32.0 °F 32% 30.29 in 10.0 mi East 16.1 mph - N/A   Clear
11:55 AM 64.4 °F 32.0 °F 30% 30.28 in 10.0 mi NE 17.3 mph - N/A   Clear
12:15 PM 64.4 °F 35.6 °F 34% 30.27 in 10.0 mi East 12.7 mph 18.4 mph N/A   Clear
12:35 PM 66.2 °F 32.0 °F 28% 30.26 in 10.0 mi East 13.8 mph 23.0 mph N/A   Clear
12:55 PM 66.2 °F 32.0 °F 28% 30.26 in 10.0 mi ESE 11.5 mph 17.3 mph N/A   Clear
1:15 PM 66.2 °F 32.0 °F 28% 30.25 in 10.0 mi East 12.7 mph 18.4 mph N/A   Clear
1:35 PM 66.2 °F 35.6 °F 32% 30.23 in 10.0 mi East 11.5 mph 16.1 mph N/A   Clear
1:55 PM 66.2 °F 33.8 °F 30% 30.23 in 10.0 mi ENE 11.5 mph - N/A   Clear
2:15 PM 66.2 °F 33.8 °F 30% 30.22 in 10.0 mi East 8.1 mph - N/A   Clear
2:35 PM 64.4 °F 35.6 °F 34% 30.21 in 5.0 mi ENE 9.2 mph - N/A   Clear
2:55 PM 64.4 °F 33.8 °F 32% 30.21 in 10.0 mi ESE 10.4 mph - N/A   Clear
3:15 PM 64.4 °F 35.6 °F 34% 30.20 in 10.0 mi East 9.2 mph - N/A   Clear
3:35 PM 64.4 °F 32.0 °F 30% 30.20 in 10.0 mi East 10.4 mph - N/A   Clear
3:55 PM 64.4 °F 32.0 °F 30% 30.19 in 10.0 mi East 10.4 mph - N/A   Clear
4:15 PM 64.4 °F 35.6 °F 34% 30.19 in 10.0 mi East 9.2 mph - N/A   Clear
4:35 PM 64.4 °F 35.6 °F 34% 30.19 in 10.0 mi ESE 4.6 mph - N/A   Clear
4:55 PM 64.4 °F 35.6 °F 34% 30.19 in 8.0 mi ESE 4.6 mph - N/A   Clear
5:15 PM 62.6 °F 35.6 °F 37% 30.19 in 10.0 mi ESE 5.8 mph - N/A   Clear
5:35 PM 60.8 °F 35.6 °F 39% 30.19 in 10.0 mi ESE 8.1 mph - N/A   Clear
5:55 PM 60.8 °F 35.6 °F 39% 30.19 in 10.0 mi East 6.9 mph - N/A   Clear
6:15 PM 60.8 °F 35.6 °F 39% 30.19 in 10.0 mi East 6.9 mph - N/A   Clear
6:35 PM 59.0 °F 37.4 °F 45% 30.20 in 10.0 mi ESE 4.6 mph - N/A   Clear
6:55 PM 59.0 °F 35.6 °F 42% 30.19 in 10.0 mi ESE 4.6 mph - N/A   Clear
7:15 PM 59.0 °F 35.6 °F 42% 30.20 in 10.0 mi ESE 5.8 mph - N/A   Clear
7:35 PM 59.0 °F 37.4 °F 45% 30.19 in 10.0 mi ESE 4.6 mph - N/A   Clear
7:55 PM 59.0 °F 37.4 °F 45% 30.19 in 9.0 mi ESE 4.6 mph - N/A   Clear
8:15 PM 59.0 °F 37.4 °F 45% 30.19 in 10.0 mi ESE 4.6 mph - N/A   Clear
8:35 PM 59.0 °F 39.2 °F 48% 30.19 in 10.0 mi SSE 3.5 mph - N/A   Clear
8:55 PM 59.0 °F 39.2 °F 48% 30.19 in 10.0 mi ESE 3.5 mph - N/A   Clear
9:15 PM 59.0 °F 39.2 °F 48% 30.19 in 10.0 mi SE 3.5 mph - N/A   Clear
9:35 PM 59.0 °F 39.2 °F 48% 30.19 in 10.0 mi SE 4.6 mph - N/A   Clear
9:55 PM 59.0 °F 41.0 °F 51% 30.19 in 10.0 mi Calm Calm - N/A   Clear
10:15 PM 59.0 °F 41.0 °F 51% 30.18 in 10.0 mi ESE 4.6 mph - N/A   Clear
10:35 PM 59.0 °F 39.2 °F 48% 30.18 in 10.0 mi SE 5.8 mph - N/A   Clear
11:15 PM 59.0 °F 41.0 °F 51% 30.17 in 10.0 mi ESE 6.9 mph - N/A   Clear
11:35 PM 59.0 °F 41.0 °F 51% 30.16 in 10.0 mi ESE 9.2 mph - N/A   Clear
11:55 PM 59.0 °F 41.0 °F 51% 30.15 in 10.0 mi ESE 9.2 mph - N/A   Clear